Location: The D'Auria's Ocala Star Observatory
(29.0276°N, 82.1742°W)
Time: 17:07:02
(UTC-05:00)

Daily predictions for brighter satellites

Satellite Brightness Start Highest point End
(mag) Time Altitude Azimuth Time Altitude Azimuth Time Altitude Azimuth
Cosmos 2150 Rocket 4.5 18:15:11 10° NNW 18:20:19 67° WSW 18:25:24 10° S
COSMOS 2428 4.2 18:15:17 10° SW 18:20:33 38° WNW 18:25:51 10° N
Cosmos 1500 Rocket 3.5 18:17:19 10° S 18:21:36 77° E 18:25:56 10° N
Thor Agena Rocket 4.4 18:17:00 10° N 18:22:06 54° WNW 18:27:06 10° SSW
Cosmos 1151 Rocket 3.8 18:19:26 10° NNE 18:23:14 30° E 18:27:01 10° SE
SEDSat Delta rocket 3.5 18:17:32 10° WNW 18:23:23 83° NNE 18:28:24 10° E
Cosmos 1634 Rocket 4.1 18:17:47 10° N 18:23:47 51° E 18:29:44 10° SSE
Cosmos 2237 Rocket 2.2 18:18:29 10° S 18:24:01 65° ESE 18:29:36 10° NNE
GMS 1 Rocket B 4.3 18:22:37 10° W 18:26:53 84° S 18:30:48 10° E
Cosmos 1125 Rocket 4.3 18:22:47 10° N 18:27:13 28° ENE 18:31:37 10° SE
Cosmos 990 Rocket 4.1 18:23:01 10° NNW 18:28:18 86° WSW 18:33:33 10° SSE
SL-16 R/B 3.2 18:24:11 10° SSE 18:28:47 26° ESE 18:33:23 10° NE
Cosmos 44 3.5 18:24:13 10° SSW 18:29:33 88° ESE 18:34:45 10° NNE
IDEFIX/ARIANE 42P 3.7 18:26:18 10° S 18:31:18 48° W 18:36:21 10° NNW
BREEZE-M DEB (TANK) 2.9 18:26:25 10° NW 18:31:47 39° NE 18:34:29 10° ESE
Cosmos 371 Rocket 4.0 18:32:55 10° SSW 18:37:38 56° WNW 18:42:22 10° N
Cosmos 1300 3.1 18:34:04 10° N 18:37:42 40° E 18:41:18 10° SSE
NOSS 0 Rocket 4.2 18:32:36 10° SSW 18:38:49 75° WNW 18:45:03 10° NNE
Hubble Space Telescope 1.4 18:35:06 10° W 18:39:09 54° SSW 18:43:12 10° ESE
Cosmos 1726 2.4 18:36:11 10° N 18:39:47 44° E 18:43:24 10° SSE
CZ-4 R/B 3.8 18:36:40 10° SSW 18:39:56 26° W 18:43:12 10° NW
BREEZE-M DEB (TANK) 4.0 18:38:11 10° W 18:40:40 23° NW 18:42:39 10° NNE
FREGAT/IRIS 4.0 18:44:32 10° ESE 18:46:47 19° ENE 18:47:34 17° NE
OTV 4 2.3 18:46:24 10° NW 18:48:29 17° N 18:49:25 15° NE
Meteor 1-11 4.2 18:44:52 10° S 18:50:29 77° E 18:56:12 10° N
Resurs 01 Rocket4.018:54:23NNE18:54:23NNE18:46:47ESE
OAO 3 Rocket 3.1 18:49:35 10° WNW 18:54:30 85° NNE 18:58:33 15° ESE
GPS 2-04 Rocket1 4.3 18:53:33 10° W 18:57:34 37° SSW 19:01:30 10° SE
Aureole 2 Rocket 2.6 18:57:01 10° SSW 19:00:26 79° WNW 19:04:14 10° NNE
Abrixas rocket 3.0 18:58:10 10° WNW 19:01:25 53° SW 19:04:40 10° SSE
Helios 1B rocket 4.2 19:02:54 16° ESE 19:02:54 16° ESE 19:04:30 10° SE
Meteor 1-28 Rocket 4.1 18:58:50 10° N 19:02:26 49° WNW 19:06:01 10° SSW
Cosmos 1844 Rocket 3.2 18:57:21 10° NNW 19:02:57 64° WSW 19:08:29 10° S
CZ-3A R/B 4.3 19:01:08 10° N 19:04:30 18° NE 19:04:52 18° NE
COSMO-SKYMED 1 4.3 19:01:05 10° N 19:04:59 33° WNW 19:08:52 10° SW
Iridium 4 Rocket 4.3 19:01:26 10° SE 19:05:06 24° E 19:05:06 24° E
Cosmos 1461 2.8 19:03:55 10° SSW 19:08:10 66° ESE 19:10:31 25° NE
Cosmos 1707 Rocket 4.2 19:05:03 10° NNE 19:08:52 30° E 19:12:41 10° SE
SJ-6B 2.9 19:06:05 10° SSE 19:09:58 53° ENE 19:13:57 10° N
Cosmos 1666 Rocket 3.7 19:08:30 10° SSE 19:12:40 49° E 19:15:24 20° NNE
Cosmos 2279 Rocket 3.9 19:09:54 10° N 19:16:08 83° E 19:22:22 10° S
Intelsat 5-1 Rocket 2.7 19:13:25 10° WSW 19:16:08 39° S 19:18:34 22° ESE
Cosmos 2058 4.0 19:13:39 10° SSW 19:17:35 44° W 19:21:31 10° N
Milstar 3 3.0 19:11:28 10° W 19:18:04 68° SSW 19:23:49 19° ESE
Orbus 7S 4.4 19:15:30 10° W 19:20:28 44° SSW 19:21:30 30° SE
FENGYUN 3A 4.0 19:16:42 10° SE 19:21:39 40° ENE 19:26:37 10° N
GPS 2-14 Rocket1 4.5 19:18:50 10° WSW 19:22:07 24° S 19:23:49 18° SSE
Cosmos 304 Rocket 4.0 19:18:50 10° SSW 19:23:36 69° WNW 19:28:08 11° N
Cosmos 2333 Rocket 4.2 19:19:29 10° WSW 19:24:04 25° WNW 19:28:41 10° N
Cosmos 1703 3.5 19:21:41 10° SSW 19:25:33 67° W 19:29:16 11° N
Cosmos 773 Rocket 4.1 19:24:17 10° S 19:29:13 50° ESE 19:30:20 42° ENE
Nadezhda 4 Rocket 3.9 19:23:17 10° S 19:29:28 76° E 19:35:45 10° N
Atlas Centaur 2 3.0 19:27:23 10° W 19:31:35 31° SSW 19:33:48 18° SSE
Cosmos 1603 4.4 19:27:50 10° SSE 19:32:07 32° ESE 19:32:07 32° ESE
METEOR-M 4.3 19:28:46 10° S 19:34:05 72° WSW 19:39:26 10° NNW
Cosmos 2180 Rocket 4.5 19:27:59 10° N 19:34:10 84° W 19:40:23 10° S
Fermi 4.4 19:33:58 10° W 19:37:54 45° S 19:38:29 42° SSE
Cosmos 372 Rocket 4.0 19:34:07 10° NNW 19:39:12 78° WSW 19:44:17 10° S
Cosmos 1356 Rocket 3.8 19:37:47 10° SSW 19:41:45 59° W 19:43:34 29° NNW
Cosmos 1092 Rocket 3.9 19:40:29 10° S 19:46:45 75° E 19:51:47 17° N
USA 215 3.1 19:45:33 29° SE 19:49:09 77° NE 19:55:43 10° NW
Cosmos 2278 Rocket 2.7 19:43:53 10° NNW 19:49:27 60° WSW 19:55:00 10° S
Cosmos 1626 3.6 19:47:31 10° SSW 19:50:59 37° W 19:52:36 24° NNW
Aureole 1 Rocket 3.4 19:54:09 10° SSW 19:58:38 84° WNW 19:59:15 70° N
Haruka 4.3 20:00:21 10° W 20:05:22 78° N 20:09:16 46° E
ALOS 2.6 20:00:57 10° S 20:05:33 61° W 20:10:10 10° NNW
BREEZE-M DEB (TANK) 3.4 20:04:55 10° SW 20:08:40 77° SE 20:08:59 74° E
SEDSat Delta rocket 4.2 20:04:37 10° W 20:09:30 40° SSW 20:09:30 40° SSW
Timation 1 Rocket 4.2 20:03:53 10° NNW 20:09:56 86° WSW 20:10:30 74° S
Spot 2 Rocket 3.8 20:05:57 10° S 20:10:56 64° WSW 20:15:57 10° NNW
SL-16 R/B 3.8 20:07:43 10° SW 20:12:41 31° WNW 20:16:18 16° NNW
ATLAS 2A CENTAUR R/B 3.6 20:10:23 10° SW 20:11:10 18° SSW 20:11:10 18° SSW
Hubble Space Telescope 3.2 20:17:03 10° WSW 20:19:12 18° SW 20:19:12 18° SW
Resurs 01 Rocket 4.0 20:23:10 10° SSW 20:31:56 - NNW 20:24:21 17° SSW
USA 229 DEB 4.2 20:24:07 10° SW 20:30:47 55° WNW 20:31:47 51° NNW
USA 229 4.1 20:24:12 10° SW 20:30:53 56° WNW 20:31:49 52° NNW
H-2A ROCKET BODY 3.8 20:54:32 10° W 21:02:29 37° W 21:02:29 37° W
